TimeEST,TemperatureF,Dew PointF,Humidity,Sea Level PressureIn,VisibilityMPH,Wind Direction,Wind SpeedMPH,Gust SpeedMPH,PrecipitationIn,Events,Conditions,WindDirDegrees,DateUTC
12:53 AM,27.0,21.0,78,29.81,10.0,WNW,4.6,-,N/A,,Overcast,300,2012-12-19 05:53:00
1:53 AM,27.0,21.0,78,29.83,10.0,WNW,3.5,-,N/A,,Overcast,300,2012-12-19 06:53:00
2:53 AM,26.1,21.0,81,29.85,10.0,WNW,5.8,-,N/A,,Overcast,290,2012-12-19 07:53:00
3:53 AM,27.0,19.9,75,29.86,10.0,West,6.9,-,N/A,,Overcast,260,2012-12-19 08:53:00
4:35 AM,21.2,17.6,86,29.82,10.0,NW,6.9,-,N/A,,Mostly Cloudy,310,2012-12-19 09:35:00
4:53 AM,21.9,18.0,85,29.88,10.0,NW,8.1,-,N/A,,Scattered Clouds,310,2012-12-19 09:53:00
5:53 AM,23.0,19.0,85,29.88,10.0,NW,4.6,-,N/A,,Clear,320,2012-12-19 10:53:00
6:53 AM,21.9,17.1,82,29.90,10.0,NW,5.8,-,N/A,,Clear,320,2012-12-19 11:53:00
7:53 AM,16.0,14.0,92,29.91,10.0,NW,3.5,-,N/A,,Clear,320,2012-12-19 12:53:00
8:53 AM,19.0,16.0,88,29.93,10.0,Calm,Calm,-,N/A,,Overcast,0,2012-12-19 13:53:00
9:53 AM,24.1,19.0,81,29.95,10.0,Calm,Calm,-,N/A,,Mostly Cloudy,0,2012-12-19 14:53:00
10:53 AM,-9999,-9999,N/A,29.91,-9999.0,South,3.5,-,N/A,,Overcast,170,2012-12-19 15:53:00
11:30 AM,26.6,21.2,80,29.92,0.2,North,-9999.0,-,N/A,,Haze,0,2012-12-19 16:30:00
11:40 AM,28.4,21.2,74,29.92,1.2,North,-9999.0,-,N/A,,Haze,0,2012-12-19 16:40:00
11:53 AM,28.0,21.9,78,29.97,10.0,South,4.6,-,N/A,,Overcast,190,2012-12-19 16:53:00
12:53 PM,28.0,21.9,78,29.96,10.0,SSW,5.8,-,N/A,,Overcast,200,2012-12-19 17:53:00
1:53 PM,28.9,23.0,78,29.96,10.0,SSW,3.5,-,N/A,,Mostly Cloudy,210,2012-12-19 18:53:00
2:53 PM,30.0,24.1,79,29.97,10.0,SSW,4.6,-,N/A,,Mostly Cloudy,200,2012-12-19 19:53:00
3:53 PM,30.9,25.0,79,29.98,10.0,WSW,6.9,-,N/A,,Overcast,250,2012-12-19 20:53:00
4:53 PM,30.0,25.0,82,30.01,10.0,West,9.2,-,N/A,,Overcast,270,2012-12-19 21:53:00
5:53 PM,30.0,24.1,79,30.03,10.0,WSW,6.9,-,N/A,,Overcast,240,2012-12-19 22:53:00
6:53 PM,28.9,24.1,82,30.03,10.0,South,4.6,-,N/A,,Overcast,180,2012-12-19 23:53:00
7:53 PM,28.9,24.1,82,30.04,10.0,South,6.9,-,N/A,,Overcast,180,2012-12-20 00:53:00
8:53 PM,28.0,24.1,85,30.03,10.0,South,5.8,-,N/A,,Overcast,190,2012-12-20 01:53:00
9:53 PM,27.0,23.0,85,30.03,10.0,South,4.6,-,N/A,,Overcast,180,2012-12-20 02:53:00
10:53 PM,27.0,23.0,85,29.98,10.0,SW,4.6,-,N/A,,Overcast,220,2012-12-20 03:53:00
11:53 PM,27.0,21.9,81,30.05,10.0,SSW,5.8,-,N/A,,Overcast,200,2012-12-20 04:53:00